User: anonymous
Location: Bangkok
(13.7500°N, 100.5170°E)
Time: 03:44:04
(UTC+07:00)
Language:

Cosmos 1898 Rocket - Orbit

View from above orbital plane
View from above orbital plane
View from above satellite
View from above satellite

Ground track
Ground track

The orbit data is extracted from the following two-line orbital elements,

1 18586U 87098B   14107.89993196  .00000491  00000-0  17631-3 0    38
2 18586 074.0071 264.0171 0021806 235.8406 278.4025 14.36396522381310
Epoch (UTC): 17 April 2014 21:35:54
Eccentricity: 0.0021806
inclination: 74.0071°
perigee height: 755 km
apogee height: 786 km
right ascension of ascending node: 264.0171°
argument of perigee: 235.8406°
revolutions per day: 14.36396522
mean anomaly at epoch: 278.4025°
orbit number at epoch: 38131

The dashed part of the orbit path shows where the satellite is in the earth's shadow,  

DLR